DLH8AL LGAV-EDDF

Flight info

Callsign DLH8AL
Flight time N/A
Altitude 40000
Route KOR UL53 IXONI DCT YNN UL611 TUMBO DCT OVVER DCT RODON DCT VAKSU DCT MONFA DCT SOTOV DCT NIKWU Q163 OLASO/N0494F320 Q163 HAFUN/N0461F240 Q163 ETASA T163 SPESA SPESA5B
Aircraft A359/H-SDE2E3GHIJ3J4J5LM1ORWXY/LB1D1

Departure

Time N/A
Airport Athens Eleftherios Venizelos International Airport (LGAV)

Arrival

Time 2026-05-03 20:15
Airport Frankfurt Main Airport (EDDF)
Time Latitude Longitude Altitude Speed Heading
2026-05-03 20:15 50.03434 8.56255 365 ft 65 kts 249°
2026-05-03 20:15 50.03313 8.55693 358 ft 52 kts 262°
2026-05-03 20:15 50.03334 8.55312 357 ft 19 kts 280°
2026-05-03 20:15 50.03352 8.55153 359 ft 16 kts 279°
2026-05-03 20:16 50.03366 8.54972 351 ft 18 kts 265°
2026-05-03 20:16 50.03324 8.54773 357 ft 21 kts 248°
2026-05-03 20:16 50.03285 8.54611 355 ft 3 kts 251°
2026-05-03 20:16 50.03272 8.54547 348 ft 8 kts 259°
2026-05-03 20:17 50.03299 8.54488 350 ft 8 kts 330°
2026-05-03 20:17 50.03325 8.54472 345 ft 2 kts 340°
2026-05-03 20:17 50.03348 8.54458 361 ft 5 kts 340°
2026-05-03 20:17 50.03372 8.54445 352 ft 0 kts 340°
2026-05-03 20:18 50.03390 8.54435 349 ft 10 kts 340°
2026-05-03 20:19 50.03505 8.54371 356 ft 21 kts 339°
2026-05-03 20:19 50.03622 8.54304 356 ft 15 kts 344°
2026-05-03 20:19 50.03662 8.54331 359 ft 6 kts 53°
2026-05-03 20:19 50.03680 8.54404 357 ft 9 kts 72°
2026-05-03 20:20 50.03703 8.54503 353 ft 10 kts 69°
2026-05-03 20:20 50.03729 8.54613 358 ft 11 kts 69°
2026-05-03 20:20 50.03759 8.54738 359 ft 13 kts 69°
2026-05-03 20:20 50.03794 8.54884 362 ft 15 kts 70°
2026-05-03 20:21 50.03834 8.55051 362 ft 18 kts 70°
2026-05-03 20:21 50.03868 8.55196 363 ft 11 kts 69°
2026-05-03 20:21 50.03894 8.55302 357 ft 9 kts 70°
2026-05-03 20:21 50.03901 8.55331 365 ft 0 kts 70°
2026-05-03 20:25 50.03906 8.55351 363 ft 7 kts 70°
2026-05-03 20:25 50.03931 8.55459 365 ft 13 kts 70°
2026-05-03 20:25 50.03966 8.55607 364 ft 16 kts 70°
2026-05-03 20:26 50.04007 8.55777 364 ft 14 kts 69°
2026-05-03 20:26 50.04029 8.55869 366 ft 4 kts 69°
2026-05-03 20:26 50.04042 8.55923 362 ft 8 kts 69°
2026-05-03 20:26 50.04082 8.55963 365 ft 7 kts 11°
2026-05-03 20:27 50.04132 8.55949 366 ft 9 kts 339°
2026-05-03 20:27 50.04146 8.55941 365 ft 0 kts 339°
2026-05-03 20:28 50.04186 8.55917 363 ft 8 kts 340°
2026-05-03 20:28 50.04237 8.55944 368 ft 8 kts 40°
2026-05-03 20:28 50.04292 8.55956 364 ft 9 kts 346°
2026-05-03 20:28 50.04353 8.55923 362 ft 10 kts 339°
2026-05-03 20:29 50.04425 8.55912 367 ft 11 kts 12°
2026-05-03 20:29 50.04511 8.55949 368 ft 15 kts 17°
2026-05-03 20:29 50.04578 8.56059 370 ft 7 kts 70°
2026-05-03 20:29 50.04585 8.56087 369 ft 9 kts 71°
2026-05-03 20:30 50.04610 8.56177 370 ft 8 kts 49°
2026-05-03 20:30 50.04660 8.56182 364 ft 8 kts 344°
2026-05-03 20:30 50.04687 8.56167 371 ft 3 kts 340°
2026-05-03 20:30 50.04692 8.56165 371 ft 0 kts 340°
2026-05-03 20:31 50.04699 8.56160 362 ft 2 kts 340°
2026-05-03 20:31 50.04703 8.56158 362 ft 0 kts 340°